Location: Worth Mountain WMA
(34.9569°N, 81.4819°W)
Time: 02:57:21
(UTC-05:00)

DELTA 2 R/B (1) - Pass Details

Date: 18 August 2017
Orbit: 791 x 803 km, 39.6° (Epoch: 20 November)

Event Time Altitude Azimuth Distance (km) Brightness Sun altitude
Rises 21:25:31 0° 290° (WNW) 3,300 8.6 -15.1°
Reaches altitude 10° 21:28:00 10° 291° (WNW) 2,370 7.4 -15.6°
Maximum altitude 21:33:37 82° 19° (NNE) 811 3.6 -16.6°
Enters shadow 21:36:42 28° 105° (ESE) 1,470 4.4 -17.1°
